TimeMST,TemperatureF,Dew PointF,Humidity,Sea Level PressureIn,VisibilityMPH,Wind Direction,Wind SpeedMPH,Gust SpeedMPH,PrecipitationIn,Events,Conditions,WindDirDegrees,DateUTC
12:09 AM,28.4,21.2,74,30.02,10.0,North,16.1,-,N/A,,Overcast,350,2013-02-25 07:09:00
12:53 AM,30.0,21.9,72,30.08,10.0,North,13.8,-,N/A,,Overcast,10,2013-02-25 07:53:00
1:16 AM,30.2,21.2,69,30.03,10.0,North,17.3,-,N/A,,Overcast,360,2013-02-25 08:16:00
1:53 AM,30.0,21.9,72,30.05,10.0,North,17.3,-,N/A,,Overcast,360,2013-02-25 08:53:00
2:53 AM,28.9,21.0,72,30.04,10.0,NNW,21.9,-,N/A,,Overcast,340,2013-02-25 09:53:00
3:53 AM,28.9,19.9,69,30.06,10.0,North,12.7,-,N/A,,Overcast,350,2013-02-25 10:53:00
4:29 AM,26.6,17.6,69,30.03,10.0,NNW,12.7,-,N/A,,Overcast,330,2013-02-25 11:29:00
4:53 AM,27.0,19.0,72,30.07,10.0,NNW,15.0,-,N/A,,Overcast,340,2013-02-25 11:53:00
5:53 AM,27.0,19.0,72,30.08,10.0,NNW,13.8,-,N/A,,Overcast,340,2013-02-25 12:53:00
6:53 AM,27.0,18.0,69,30.08,10.0,NNW,17.3,-,N/A,,Overcast,340,2013-02-25 13:53:00
7:53 AM,28.0,18.0,66,30.12,10.0,NNW,15.0,-,N/A,,Overcast,340,2013-02-25 14:53:00
8:53 AM,28.0,18.0,66,30.12,10.0,NNW,11.5,-,N/A,,Mostly Cloudy,330,2013-02-25 15:53:00
9:00 AM,28.4,17.6,64,30.05,10.0,NNW,15.0,-,N/A,,Scattered Clouds,340,2013-02-25 16:00:00
9:53 AM,33.1,18.0,54,30.08,10.0,NNW,17.3,-,N/A,,Scattered Clouds,340,2013-02-25 16:53:00
10:53 AM,37.0,16.0,42,30.05,10.0,North,17.3,24.2,N/A,,Partly Cloudy,360,2013-02-25 17:53:00
11:53 AM,39.9,12.9,33,30.01,10.0,North,16.1,25.3,N/A,,Clear,350,2013-02-25 18:53:00
12:53 PM,41.0,10.0,28,29.96,10.0,North,17.3,26.5,N/A,,Clear,360,2013-02-25 19:53:00
1:53 PM,42.1,9.0,26,29.94,10.0,NNE,17.3,23.0,N/A,,Clear,30,2013-02-25 20:53:00
2:53 PM,42.1,10.0,27,29.93,10.0,North,11.5,23.0,N/A,,Clear,360,2013-02-25 21:53:00
3:53 PM,42.1,10.0,27,29.91,10.0,NNE,9.2,20.7,N/A,,Clear,30,2013-02-25 22:53:00
4:53 PM,39.0,10.9,32,29.92,10.0,ENE,9.2,-,N/A,,Clear,60,2013-02-25 23:53:00
5:53 PM,33.1,10.0,38,29.94,10.0,NE,9.2,-,N/A,,Clear,40,2013-02-26 00:53:00
6:53 PM,28.0,8.1,43,29.94,10.0,North,-9999.0,-,N/A,,Clear,0,2013-02-26 01:53:00
7:53 PM,24.1,7.0,48,29.95,10.0,North,6.9,-,N/A,,Clear,360,2013-02-26 02:53:00
8:53 PM,21.9,8.1,55,29.97,10.0,WNW,6.9,-,N/A,,Clear,290,2013-02-26 03:53:00
9:53 PM,21.9,9.0,58,29.94,10.0,NW,5.8,-,N/A,,Clear,310,2013-02-26 04:53:00
10:53 PM,19.0,8.1,62,29.94,10.0,SW,4.6,-,N/A,,Clear,230,2013-02-26 05:53:00
11:53 PM,19.9,9.0,62,29.90,10.0,Calm,Calm,-,N/A,,Clear,0,2013-02-26 06:53:00